COSMOS 2375 (GLONASS)

Satellite information

Favourite Embed

Satellite Type and Status

PAYLOADIN ORBIT

Key statistics

Satellite COSMOS 2375 (GLONASS) at a glance.

Uptime

9034

Days in orbit

Revolutions

≈ 2.1

Per day

Orbit

MEO

Medium Earth Orbit

Inclination

65.4

Latest

Satellite identification and parameters

Extended collection of information and parameters for COSMOS 2375 (GLONASS).

Object identification

Identified? True

Debris? False

Object name: COSMOS 2375 (GLONASS)

International designator: 2000-063A

Object number (NORAD): 26564

Object ID (CCSDS): 26564

Country: COMMONWEALTH OF INDEPENDENT STATES (CIS)

Current information (Y/N): Y

RCS size: LARGE

Orbital parameters

Period: 675.733 minutes

Inclination: 65.3972 deg

SMA: 25508.029 km

Apoapsis: 19146.372 km

Periapsis: 19113.416 km

RAAN: 325.55 deg

Eccentricy: 0.000646

Argument of periapsis: 15.5043 deg

Mean anomaly: 344.5111 deg

Mean motion: 2.13101943 rev/day

Mean motion (dot): -0.00000071 rev/day2

B* drag term: 0.0 1/REarth

Two-line elements (TLE)

Creation date: July 7, 2025, 10:46 p.m.

Reference frame: TEME

Reference center: EARTH

Epoch: July 7, 2025, 8:36 p.m. UTC

TLE line 0: 0 COSMOS 2375 (GLONASS)

TLE line 1: 1 26564U 00063A 25188.85868339 -.00000071 00000-0 00000+0 0 9994

TLE line 2: 2 26564 65.3972 325.5500 0006460 15.5043 344.5111 2.13101943192488

Live tracking on map

Real-time ground track for satellite COSMOS 2375 (GLONASS).

In-orbit conjunctions

A list of the most updated potential collisions computed for object COSMOS 2375 (GLONASS).

Target Orbit TCA Probability of collision Miss distance Type
COSMOS 1987 (GLONASS) MEO 2024-10-12 14:30:01 TBA 4261.0 (m) PAYLOAD
COSMOS 1987 (GLONASS) MEO 2024-10-12 03:14:17 TBA 3570.0 (m) PAYLOAD
COSMOS 1987 (GLONASS) MEO 2024-10-11 15:58:33 TBA 3362.0 (m) PAYLOAD
COSMOS 1987 (GLONASS) MEO 2024-10-11 04:42:48 TBA 3075.0 (m) PAYLOAD
COSMOS 1987 (GLONASS) MEO 2024-10-10 17:27:04 TBA 3252.0 (m) PAYLOAD

Associated space launch

GLONASS navigation satellites

COSMOS 2375 (GLONASS) was lifted into orbit during the mission ‘Proton | Uragan 75 to 77’, on board a Proton space rocket.

The launch took place on Oct. 13, 2000, 2:12 p.m. from 81/24 (81P).

For more information about the launch, click the button.

Launch to space Proton | Uragan 75 to 77
Proton | Uragan 75 to 77

Agency: N/A

Status: Launch Successful

Launch date: Oct. 13, 2000, 2:12 p.m. UTC

Rocket: Proton

Launch pad: 81/24 (81P)

Location: Baikonur Cosmodrome, Republic of Kazakhstan

...

Latest news about this satellite

There are no fresh news available about this satellite. Check back as we update our databases every day.


Newsletter sign-up

Weekly statistics, charts and insights to help you stay on top of the space industry.